RH
78 63 83 92 80 68 56 40 36 37 36 25 22 22 43 22 30 23 40 24 41 30 35 66 97 100 100 100 94 87 68 42 23 18 16 18 23 82 84 73 92 87 84 81
84 92 98 92 75 64 56 46 44 43 35 28 28 26 48 25 30 24 47 32 37 42 44 98 100 100 90 80 59 35 23 20 19 17 19 22 38 53 76 66 64 61 72 66
73 86 86 84 83 80 69 46 58 48 41 28 25 22 35 30 27 26 46 37 33 46 50 100 98 77 50 34 25 22 21 19 18 20 19 20 22 26 30 38 42 42 39 27
68 86 91 78 63 64 59 75 67 54 44 24 28 24 33 36 35 32 49 28 29 84 80 99 77 56 29 24 22 22 21 19 18 18 18 18 18 18 18 18 17 16 15 15
53 60 46 35 39 31 33 28 36 38 37 28 24 22 32 38 26 33 48 34 76 100 84 75 51 30 26 24 23 24 24 23 21 21 20 20 20 20 19 18 18 20 22 21
23 21 20 20 20 15 26 19 19 24 29 19 24 21 40 34 34 48 44 37 72 93 73 42 32 27 30 28 29 26 26 25 25 22 21 23 24 25 23 22 23 23 24 23
8 7 7 8 9 7 8 10 13 18 19 20 28 25 41 31 41 56 35 48 90 73 50 34 31 29 30 34 30 28 28 28 27 26 25 26 29 31 28 26 24 24 24 23
7 6 4 3 4 5 6 8 12 23 24 23 26 28 38 35 41 48 35 51 82 55 41 34 33 31 33 34 30 28 30 29 28 28 30 29 30 29 27 25 23 24 23 23
3 3 3 3 3 4 6 10 21 45 29 23 22 29 35 35 42 50 53 69 77 56 47 39 36 34 35 32 32 34 31 33 34 33 33 32 30 28 28 27 25 25 25 23
4 4 4 6 7 6 9 16 31 33 31 28 32 38 48 57 55 63 71 77 74 57 53 50 41 36 37 35 39 46 40 41 38 34 35 33 27 31 31 28 25 24 25 25
11 10 13 19 19 23 19 40 49 69 82 38 33 34 44 44 54 59 66 70 66 55 55 51 46 42 39 41 47 48 45 40 37 37 35 32 33 33 31 28 25 25 26 27
87 64 93 74 98 97 90 100 100 99 42 40 29 48 65 51 58 60 68 66 58 51 51 49 48 50 47 55 56 52 45 43 43 40 38 38 35 34 31 27 25 28 29 27
100 100 100 100 100 100 100 100 100 46 43 32 31 64 66 52 59 68 71 64 56 56 54 52 49 51 56 56 56 53 48 44 48 49 41 38 36 34 27 26 30 30 30 26
100 100 100 100 100 100 100 100 85 52 35 32 41 67 72 60 67 73 67 64 59 58 53 51 51 55 55 55 56 54 48 49 47 42 40 38 35 31 28 32 33 31 25 22
100 100 100 100 100 100 100 89 58 44 34 35 57 62 60 56 56 67 65 66 65 60 55 49 48 53 54 54 54 50 45 43 43 44 38 35 31 31 33 36 30 24 23 26
100 100 100 100 99 100 50 57 39 33 33 40 54 57 52 55 63 63 63 67 69 61 56 53 50 50 50 48 45 42 43 44 40 37 34 30 31 37 38 31 24 24 28 33
97 95 98 93 70 47 46 44 33 29 26 28 46 50 55 60 59 67 69 71 71 67 57 52 49 48 45 42 41 42 41 38 35 30 31 36 40 38 28 24 26 34 44 47
76 82 68 70 38 40 30 28 27 22 22 37 49 53 56 61 64 61 63 64 65 61 49 46 47 45 39 40 40 39 34 31 33 36 40 40 31 24 24 30 41 50 50 50
62 58 58 53 43 34 31 27 25 32 40 46 47 55 62 64 58 54 54 53 50 49 48 45 40 37 38 38 35 34 36 38 41 42 32 25 26 30 43 52 51 50 52 47
56 59 60 42 43 35 32 30 37 46 59 57 47 52 58 61 60 60 60 54 45 41 38 38 39 38 39 40 33 38 42 40 30 25 26 30 38 55 52 54 55 45 44 45
52 48 44 37 36 29 31 38 51 57 57 52 45 44 47 49 54 55 51 48 46 43 42 43 41 36 36 39 43 38 29 26 27 29 42 56 56 48 50 45 45 47 56 56
49 44 40 37 31 31 33 37 48 53 60 63 58 49 45 47 49 50 47 43 40 41 39 41 45 49 47 34 28 27 27 30 41 50 55 56 52 53 46 50 60 60 46 47
40 36 36 34 29 31 32 32 38 46 52 60 59 56 60 64 61 62 63 62 57 54 56 50 36 29 28 28 28 29 42 52 54 62 49 51 45 45 63 65 49 46 49 54
37 40 38 34 29 28 29 31 33 34 37 39 42 45 48 49 50 50 47 41 35 31 29 29 30 31 32 37 50 52 55 66 60 54 48 46 59 69 55 47 48 53 58 56
38 30 29 28 29 30 31 30 30 30 31 31 32 32 33 34 32 30 29 30 32 33 33 39 49 60 59 53 66 70 63 58 48 44 55 70 60 50 49 55 60 61 59 57
59 50 36 31 30 30 30 28 29 29 30 31 32 33 33 33 34 36 39 42 46 56 68 76 69 55 61 67 64 56 50 44 43 66 63 51 48 52 59 64 66 63 63 64
Wind_Speed
71 57 51 64 66 68 68 66 66 66 75 86 78 77 80 82 71 64 56 52 45 44 41 40 42 43 38 39 40 43 40 36 35 38 42 42 44 40 41 42 41 40 40 40
68 52 68 76 77 76 76 73 67 69 75 89 85 79 84 82 70 65 56 52 45 45 40 39 39 37 33 32 33 33 32 33 37 41 38 38 38 41 42 44 44 43 41 41
73 69 81 83 85 82 80 73 73 70 79 89 88 83 85 78 69 66 57 54 43 45 39 37 36 31 30 31 32 31 34 36 38 36 34 33 33 32 35 38 39 40 41 43
82 86 87 88 84 84 81 80 81 74 79 88 94 83 83 76 73 65 57 50 42 45 39 38 34 32 33 33 32 30 31 30 32 31 31 31 32 32 33 34 34 36 37 40
87 86 88 85 77 83 73 79 77 76 77 87 93 83 81 80 72 60 58 48 46 44 39 39 36 36 38 36 33 32 32 29 29 29 30 31 32 33 34 36 39 40 41 43
79 77 76 75 73 69 66 69 71 74 79 90 90 80 83 77 68 61 58 47 46 47 42 42 40 41 38 37 34 35 33 31 33 33 33 35 37 37 40 41 43 46 49 51
54 51 48 48 50 52 51 64 64 69 78 76 85 81 82 77 68 63 56 50 49 50 44 43 42 43 40 38 37 34 34 35 36 36 36 38 39 40 42 45 48 51 55 58
31 31 34 36 40 43 52 66 61 60 72 80 83 82 80 75 68 61 55 51 51 51 46 44 44 44 41 40 40 37 37 38 39 41 40 40 43 45 47 49 53 56 59 63
20 22 23 25 27 33 44 49 64 72 80 86 82 79 84 73 66 61 56 55 55 53 47 45 45 44 43 42 41 38 40 41 41 41 41 42 46 50 53 56 60 63 67 69
13 15 19 24 32 45 55 61 69 75 78 80 79 83 79 71 65 61 58 58 55 52 48 46 45 45 46 43 41 40 40 42 41 44 46 48 51 56 59 62 66 69 72 75
11 17 29 39 44 52 56 67 71 71 69 79 79 78 74 67 64 62 60 59 55 51 47 45 47 48 46 43 43 43 42 43 45 48 50 54 59 62 66 69 72 75 78 81
47 48 60 61 62 57 66 59 53 60 72 78 75 77 70 66 64 61 60 58 54 50 47 47 48 45 45 45 46 46 47 47 50 53 56 59 64 68 72 75 78 82 84 87
58 59 62 69 65 56 51 49 53 74 76 74 74 73 69 64 62 60 59 56 51 49 48 49 49 46 46 47 49 50 51 52 55 60 63 66 71 75 79 81 84 87 90 94
57 59 50 43 53 48 33 47 60 66 73 71 72 70 67 63 62 60 58 56 52 51 52 52 50 48 49 50 52 54 55 58 62 65 68 73 77 81 83 86 89 91 96 99
54 56 45 43 52 57 51 58 69 68 72 72 69 67 64 62 60 58 56 56 54 54 54 54 53 52 52 53 56 59 60 63 66 71 75 79 82 85 87 91 93 98 99 98
55 54 54 53 52 53 59 67 70 71 72 71 70 65 60 57 56 55 54 54 53 54 56 56 56 56 56 58 60 62 65 68 72 76 80 83 85 89 92 95 98 99 95 93
56 56 53 53 57 60 62 67 67 68 65 60 60 60 56 53 51 50 51 51 54 56 57 58 58 59 61 62 64 66 69 74 77 80 82 86 90 93 96 99 97 91 91 92
52 57 53 51 50 50 56 57 59 59 58 57 59 55 50 50 50 48 50 50 52 55 57 58 60 62 64 65 67 70 74 77 79 82 87 90 94 97 97 91 89 90 90 90
36 43 45 44 44 45 54 57 57 54 51 52 52 48 49 50 50 47 47 49 52 56 59 61 63 64 65 68 71 74 76 79 84 88 91 94 95 91 86 87 88 89 90 93
32 32 38 39 41 45 54 54 51 48 48 48 47 49 51 49 49 48 49 51 51 55 58 60 62 64 66 71 74 76 81 84 88 90 92 87 82 83 85 86 87 89 92 94
25 28 30 35 39 46 51 51 49 47 47 47 47 48 48 49 50 51 52 52 54 56 59 61 65 68 71 74 78 82 85 88 88 83 79 80 81 82 83 85 89 90 89 88
25 26 27 32 42 46 49 48 48 48 50 49 48 48 49 50 50 52 54 56 58 61 64 67 70 72 76 79 82 84 84 80 77 77 77 79 80 81 84 87 85 84 89 94
23 23 26 32 40 48 51 51 50 49 49 50 50 51 53 54 54 56 59 61 64 66 69 72 74 76 78 80 79 76 73 73 73 74 77 77 81 84 82 79 85 90 96 101
24 26 27 29 33 42 47 50 52 53 53 54 54 56 57 58 60 62 64 66 68 71 72 73 74 75 73 71 69 69 69 70 73 75 77 80 79 76 79 85 90 97 103 108
23 25 27 28 31 35 41 47 51 53 56 57 58 58 60 62 63 64 65 66 66 66 65 64 62 62 62 64 65 67 70 72 73 75 75 72 73 79 85 92 98 104 110 114
20 20 20 23 26 28 31 35 39 42 44 45 47 50 52 53 54 54 53 53 54 55 56 56 58 61 64 65 68 69 70 72 71 69 68 73 78 84 91 97 103 110 116 123
Wind_Direction
284 281 274 265 261 257 254 246 237 231 229 225 222 213 218 223 221 224 228 230 235 240 240 241 242 242 241 245 248 252 255 260 267 271 275 279 282 278 278 279 284 290 292 291
282 275 263 261 260 258 256 251 246 238 229 226 219 211 214 218 217 222 225 228 230 237 237 241 239 239 243 246 250 257 259 267 269 272 274 279 281 275 280 279 279 282 289 290
276 269 266 264 261 259 256 252 249 240 232 222 219 213 212 213 214 220 221 226 226 235 234 233 234 237 241 244 249 254 259 262 267 269 271 276 281 286 286 284 283 284 286 289
275 269 265 262 260 257 253 250 244 236 230 217 217 209 210 208 211 214 219 223 225 231 227 229 230 231 233 235 241 248 254 258 263 267 272 278 281 282 284 286 288 290 293 294
276 270 268 265 260 253 246 244 239 231 221 213 214 206 207 205 210 211 218 215 220 225 224 225 224 226 229 235 240 245 251 257 262 267 271 276 279 282 286 290 294 298 300 301
274 269 265 261 255 251 242 237 231 224 214 207 208 201 204 202 204 206 215 212 218 222 218 220 222 226 230 237 244 248 255 259 264 268 272 278 283 288 291 294 298 302 303 304
271 262 252 246 242 237 224 221 217 213 209 200 203 197 201 198 200 205 210 210 214 219 216 219 222 228 233 239 244 252 257 261 268 273 277 282 286 291 294 299 302 303 304 306
257 247 240 232 226 219 210 209 200 198 200 195 198 191 199 195 199 203 209 210 212 217 216 219 225 231 237 242 246 255 259 266 272 277 280 284 289 294 298 300 300 301 303 304
239 228 222 215 209 202 201 192 184 186 193 194 193 188 196 193 197 201 207 212 211 217 218 221 230 236 242 248 252 259 264 269 272 276 279 284 290 295 298 301 303 303 303 304
226 206 193 166 174 182 181 177 176 187 189 187 184 187 191 191 196 200 206 213 213 216 221 227 233 240 245 249 254 260 265 268 273 276 281 288 291 294 299 302 302 302 303 305
122 151 151 148 162 163 171 166 175 180 183 179 183 185 191 192 195 201 207 214 214 216 223 230 237 241 245 251 257 260 265 269 273 279 284 288 292 296 299 300 302 303 305 306
118 133 135 144 142 149 154 160 164 179 179 182 179 183 191 193 199 203 208 215 216 218 225 233 237 242 248 254 258 261 265 270 276 282 286 290 292 295 299 302 302 303 305 306
129 135 139 147 143 145 155 166 175 178 176 180 178 183 191 194 200 205 209 214 219 224 230 236 240 244 249 255 259 263 268 274 280 283 287 291 294 298 301 302 302 303 305 306
138 137 134 142 161 155 160 161 175 172 177 178 179 185 193 198 202 207 212 216 221 228 233 237 243 248 253 258 263 268 272 277 280 283 288 292 296 299 300 300 303 304 306 306
147 149 150 154 157 160 181 169 173 175 177 177 183 188 195 201 205 210 215 220 226 231 236 240 245 251 256 261 266 269 273 277 281 286 291 294 297 297 300 301 303 305 304 304
155 159 166 169 170 180 181 173 176 178 179 181 184 191 199 205 210 215 221 225 229 234 239 244 248 252 258 263 267 272 277 282 286 290 293 294 296 299 300 302 303 303 302 301
166 171 174 183 184 181 177 178 180 180 181 182 188 195 201 208 214 219 224 228 232 237 242 246 252 255 261 267 271 276 281 285 288 290 293 295 297 299 300 301 301 301 301 302
177 180 182 187 186 182 180 182 182 183 183 187 195 200 207 213 217 223 229 234 240 242 245 250 255 261 267 271 276 280 284 286 289 292 294 296 297 299 300 300 300 301 302 302
193 193 196 188 185 182 183 183 185 187 192 196 203 205 213 219 223 228 233 238 242 246 250 255 260 266 271 276 279 281 285 289 291 293 295 297 298 299 299 300 302 302 303 305
201 200 207 197 197 187 186 189 192 196 201 205 210 215 218 224 229 235 240 246 250 253 256 261 265 270 274 277 281 285 287 290 291 294 297 297 298 299 301 302 303 305 305 305
209 216 218 214 205 191 192 197 200 204 210 216 220 224 229 233 236 240 245 251 256 260 264 268 270 274 277 281 284 286 288 291 294 295 296 297 299 301 302 304 305 304 304 305
211 211 209 209 202 199 203 207 209 212 216 222 228 232 237 241 246 251 254 257 260 263 267 270 274 277 280 282 285 288 291 292 293 295 297 300 301 303 304 304 303 304 306 307
217 217 214 213 206 207 210 215 218 222 227 231 236 240 243 247 251 255 259 261 264 267 270 272 276 280 283 285 288 289 289 292 295 299 300 301 304 303 302 302 304 306 307 309
209 214 216 216 213 216 219 224 228 230 234 238 242 245 248 252 256 259 263 266 269 272 275 278 280 282 283 284 287 289 292 295 297 299 301 302 301 302 303 305 307 308 309 311
206 212 213 213 217 218 221 225 230 234 238 242 246 250 253 256 260 263 266 269 271 274 276 277 278 280 283 286 289 292 295 297 299 299 300 301 302 304 306 307 308 310 312 313
204 210 217 221 223 225 229 232 236 239 243 246 249 251 254 257 259 262 264 266 268 271 274 277 279 282 286 288 291 294 295 297 297 298 300 302 304 306 307 309 312 313 314 314